Meteo Giornale » Osservazioni meteo Giordania » Queen Alia

ore: 21:00 - Osservazioni Meteo Queen Alia
Lat. 31° 40' N Lon. 35° 58' E Alt. 721 metri s.l.m.

foschia

27 °C

Foschia

Temp. 24 Ore

17 °C

32 °C

Ovest

9.3 Km/h

Dew point 15 °C

Umidità 47 %

Visibilità  5 Km

Il sole sorge alle ore 06:11

Il sole tramonta alle ore 19:00

Data e Ora Cielo e Fenomeni T °C DP °C Um. % Pres. hPa Vis. km Vento km/h
Oggi h: 21:00 foschia Foschia 27 15 47 1013 5 O 9.3
Oggi h: 20:00 foschia Foschia 28 15 45 1013 5 O/NO 11.1
Oggi h: 19:00 foschia Foschia 30 13 35 1013 5 O/NO 16.7
Oggi h: 18:00 foschia Foschia 32 11 27 1013 5 O/NO 16.7
Oggi h: 17:00 foschia Foschia 32 10 25 1013 5 O 18.5
Oggi h: 16:00 foschia Foschia 32 13 31 1013 5 O/NO 16.7
Oggi h: 15:00 foschia Foschia 32 15 35 1013 5 O/NO 14.8
Oggi h: 14:00 foschia Foschia 32 12 29 1013 5 SO 14.8
Oggi h: 13:00 foschia Foschia 31 12 31 1014 5 S 9.3
Oggi h: 12:00 foschia Foschia 30 13 35 1014 5 N 0
Oggi h: 11:00 foschia Foschia 28 14 42 1015 5 N 0
Oggi h: 10:00 foschia Foschia 25 16 57 1015 5 N 5.5
Oggi h: 09:00 foschia Foschia 23 17 68 1015 5 N 5.5
Oggi h: 08:00 foschia Foschia 21 16 73 1015 5 N 5.5
Oggi h: 07:00 foschia Foschia 18 15 82 1014 4 N 5.5
Oggi h: 06:00 foschia Foschia 17 15 88 1014 4 N 5.5
Oggi h: 05:00 foschia Foschia 17 14 82 1014 4 N 5.5
Oggi h: 04:00 foschia Foschia 18 16 88 1014 4 N 5.5
Oggi h: 03:00 foschia Foschia 19 17 88 1014 5 N 0
Oggi h: 02:00 foschia Foschia 20 18 88 1014 5 N 0
Oggi h: 01:00 foschia Foschia 21 18 82 1014 5 N 5.5
Oggi h: 00:00 foschia Foschia 22 18 78 1014 5 N 5.5
Ieri h: 23:00 foschia Foschia 22 17 73 1014 5 O 7.4
Ieri h: 22:00 foschia Foschia 24 18 69 1014 5 O/NO 7.4